Skip Page Navigation
NASA JPL Caltech
NASA Logo - Jet Propulsion Laboratory + View the NASA Portal
+ Center for Near-Earth Object Studies
JPL Home Earth Solar System Stars & Galaxies Technology
JPL Solar System Dynamics
BODIES ORBITS EPHEMERIDES TOOLS PHYSICAL DATA DISCOVERY FAQ SITE MAP
JPL Small-Body Database Browser
Search: [ help ]  
187409 (2005 VE58)
Classification: Outer Main-belt Asteroid          SPK-ID: 2187409
Ephemeris | Orbit Diagram | Orbital Elements | Mission Design | Physical Parameters | Discovery Circumstances | Close-Approach Data ]

[ hide orbit diagram ]

For accurate long-term ephemerides, please instead use our Horizons system.This orbit viewer was implemented using two-body methods, and hence should not be used for determining accurate long-term trajectories (over several years or decades) or planetary encounter circumstances.


Orbital Elements at Epoch 2459396.5 (2021-Jul-01.0) TDB
Reference: JPL 11 (heliocentric ecliptic J2000)
 Element Value Uncertainty (1-sigma)   Units 
e .1273516534754908 5.1507e-08  
a 3.243857312954318 3.668e-08 au
q 2.830746720511023 1.6925e-07 au
i 4.575745158714813 5.3681e-06 deg
node 153.6376586204995 7.1664e-05 deg
peri 278.7387331893156 7.5581e-05 deg
M 245.0824264166423 2.8569e-05 deg
tp 2460077.700546521388
(2023-May-13.20054652)
0.00017619 TDB
period 2133.983420471507
5.84
3.6196e-05
9.91e-08
d
yr
n .1686985927568535 2.8614e-09 deg/d
Q 3.656967905397613 4.1352e-08 au
  Orbit Determination Parameters
   # obs. used (total)      290  
   data-arc span      7083 days (19.39 yr)  
   first obs. used      2001-02-03  
   last obs. used      2020-06-26  
   planetary ephem.      DE441  
   SB-pert. ephem.      SB441-N16  
   condition code      0  
   norm. resid. RMS      .57127  
   source      ORB  
   producer      Otto Matic  
   solution date      2021-Apr-13 21:55:17  

Additional Information
 Earth MOID = 1.85 au 
 Jupiter MOID = 1.63172 au 
 T_jup = 3.165 
[ hide covariance matrix ]
Orbital Elements at Epoch 2457543.5 (2016-Jun-04.0) TDB
Reference: JPL 11 (heliocentric ecliptic J2000)
 Element Value Uncertainty (1-sigma)   Units 
e .1318429066108311 5.1298e-08  
q 2.808237230090845 1.6822e-07 au
tp 2457953.037345119374
(2017-Jul-18.53734512)
0.00015232 TDB
node 153.7745996684282 7.1939e-05 deg
peri 279.1654869371694 7.5608e-05 deg
i 4.570545174957362 5.3643e-06 deg
  Orbit Determination Parameters
   # obs. used (total)      290  
   data-arc span      7083 days (19.39 yr)  
   first obs. used      2001-02-03  
   last obs. used      2020-06-26  
   planetary ephem.      DE441  
   SB-pert. ephem.      SB441-N16  
   condition code      0  
   norm. resid. RMS      .57127  
   source      ORB  
   producer      Otto Matic  
   solution date      2021-Apr-13 21:55:17  

Additional Information
 Jupiter MOID = 1.63172 au 
 T_jup = 3.165 
Orbit Covariance (6×6)
  e q tp node peri i
e 2.631435438290991E-15 -8.467241936689937E-15 -1.519439699909687E-12 4.321698468019669E-15 -2.174544572872461E-13 2.238237841822054E-15
q -8.467241936689937E-15 2.829803406853988E-14 6.931737673201501E-12 -1.787411366471327E-14 9.807894182867437E-13 -6.524835454161624E-15
tp -1.519439699909687E-12 6.931737673201501E-12 2.320062458366644E-8 3.233950955675544E-12 3.596024220782294E-9 -1.40026450119445E-13
node 4.321698468019669E-15 -1.787411366471327E-14 3.233950955675544E-12 5.175168780428233E-9 -5.157964252863635E-9 3.719604026283528E-11
peri -2.174544572872461E-13 9.807894182867437E-13 3.596024220782294E-9 -5.157964252863635E-9 5.716642775983953E-9 -3.70961816624408E-11
i 2.238237841822054E-15 -6.524835454161624E-15 -1.40026450119445E-13 3.719604026283528E-11 -3.70961816624408E-11 2.877579084294818E-11

Ephemeris | Orbit Diagram | Orbital Elements | Mission Design | Physical Parameters | Discovery Circumstances | Close-Approach Data ]

Physical Parameter Table
Parameter Symbol Value Units Sigma Reference Notes
absolute magnitude H 15.4   n/a MPO436927  

187409 (2005 VE58)          Discovered 2005-Nov-04 by Mt. Lemmon Survey at Mount Lemmon
Reference: 20080520/Numbers.arcLast Updated: 2008-05-22

[ hide close-approach data ]
Close-Approach Data   ...sorted by Date/Time (TDB)
Date/Time (TDB) Time Uncertainty
(days_HH:MM)
Body Nominal Distance (au) Minimum Distance (au) Maximum Distance (au) V-relative (km/s) V-infinity (km/s) JD (TDB) Time Uncertainty (minutes) Semi-major axis (km) Semi-minor axis (km) range-LOV angle (deg) N-sigma BP Orbit Ref. Reference Modified
1999-Apr-27 17:09 < 00:01 Jupiter 1.99778020354375 1.99777944433085 1.99778096275675 4.29046217504651 4.19047753973294 2451296.214591500 0.837343663731442 61.7017728500884 27.2169159940868 69.7460033186394 2414711.38964216 T 11 CATAB v2.0f-lin.ifort 2021-Apr-13 21:55:18 2021-Apr-13 21:55
2010-Aug-21 23:48 < 00:01 Jupiter 1.87251506979992 1.8725144038387 1.87251573576102 3.64753661092081 3.52133975466506 2455430.491631111 0.361161685395238 50.7712211526727 25.8128002995663 79.8471928173976 2292513.91606651 T 11 CATAB v2.0f-lin.ifort 2021-Apr-13 21:55:18 2021-Apr-13 21:55
2022-Jan-09 08:12 < 00:01 Jupiter 1.77592524885993 1.77592467287028 1.77592582484948 3.13309778285568 2.97697957478692 2459588.841911566 0.455074448220344 56.6789930125853 20.7790893451943 89.9152771105156 2406630.01016959 T 11 CATAB v2.0f-lin.ifort 2021-Apr-13 21:55:18 2021-Apr-13 21:55
2033-Jun-26 13:55 00:01 Jupiter 1.71142020896536 1.71141968915951 1.71142072877111 2.76665338224891 2.58157382877947 2463775.079891548 1.1020467210282 77.9578260896987 16.6079241574764 -87.9431352640476 2335459.36922611 T 11 CATAB v2.0f-lin.ifort 2021-Apr-13 21:55:18 2021-Apr-13 21:55
2045-Jan-06 22:26 00:02 Jupiter 1.67775348299977 1.67775299900252 1.67775396699692 2.5300886942237 2.3219901961608 2467987.434607352 1.85137703866334 102.75953506795 15.336487824687 -84.868751942383 2265941.60385919 T 11 CATAB v2.0f-lin.ifort 2021-Apr-13 21:55:18 2021-Apr-13 21:55
2056-Aug-12 05:42 00:03 Jupiter 1.66105045421156 1.66104997848487 1.66105092993843 2.37983860236646 2.15494039298303 2472222.737665976 2.70105365179517 125.157819781356 17.0049202644045 -80.7562595397265 2272271.49469572 T 11 CATAB v2.0f-lin.ifort 2021-Apr-13 21:55:18 2021-Apr-13 21:55
2068-Apr-01 12:44 00:04 Jupiter 1.65463134726623 1.65463078072244 1.65463191381163 2.28194729788768 2.04535162136023 2476473.030261694 3.69166760775778 142.005562436966 20.5616068469046 -75.9691993020525 2352775.53597978 T 11 CATAB v2.0f-lin.ifort 2021-Apr-13 21:55:18 2021-Apr-13 21:55
2079-Nov-29 03:43 00:05 Jupiter 1.66378523504356 1.66378440083446 1.66378606925549 2.23817334216315 1.9978069461127 2480731.654982621 4.86057428107662 149.171045716907 24.5886612857609 -70.6146404082321 2521462.16316902 T 11 CATAB v2.0f-lin.ifort 2021-Apr-13 21:55:18 2021-Apr-13 21:55
2091-Jul-27 05:03 00:06 Jupiter 1.68688375471056 1.68688244485529 1.68688506456822 2.24008956874054 2.00343605128317 2484989.710410950 6.24330975199048 140.601399644608 30.6742803217164 -62.9634971239389 2653562.3239343 T 11 CATAB v2.0f-lin.ifort 2021-Apr-13 21:55:18 2021-Apr-13 21:55
2103-Mar-17 10:24 00:08 Jupiter 1.72735187966676 1.72734987735704 1.72735388197667 2.29391873601662 2.06914117480989 2489239.933263503 7.83544270446813 113.323592529685 45.5593847913621 -46.3367436052839 1828590.63368911 T 11 CATAB v2.0f-lin.ifort 2021-Apr-13 21:55:18 2021-Apr-13 21:55
2114-Oct-23 01:45 00:10 Jupiter 1.78042301759093 1.78042010527499 1.78042592990474 2.39904962676059 2.1917925416472 2493477.573049365 9.60495317604045 109.45718583258 62.1296614087523 19.1247002247932 876153.367043836 T 11 CATAB v2.0f-lin.ifort 2021-Apr-13 21:55:18 2021-Apr-13 21:55
2126-May-13 06:07 00:11 Jupiter 1.85055657845983 1.85055261853022 1.85056053838986 2.58236712079457 2.39858194418485 2497697.754782784 11.4453516267494 213.017832441596 44.4968179726165 51.5693405669588 1311962.9696715 T 11 CATAB v2.0f-lin.ifort 2021-Apr-13 21:55:18 2021-Apr-13 21:55
2137-Nov-14 13:31 00:13 Jupiter 1.93977544411741 1.93977059146414 1.93978029678348 2.86601092687075 2.70937233729445 2501901.063418913 13.1858623674566 360.817202537372 35.8394350114562 61.2214860902054 1757205.37507652 T 11 CATAB v2.0f-lin.ifort 2021-Apr-13 21:55:18 2021-Apr-13 21:55
Ephemeris | Orbit Diagram | Orbital Elements | Mission Design | Physical Parameters | Discovery Circumstances | Close-Approach Data ]
ABOUT SSD CREDITS/AWARDS PRIVACY/COPYRIGHT GLOSSARY LINKS
FirstGov 2021-Jul-30 05:21 UT
(server date/time)  
NASA Home Page
Site Manager:   Ryan S. Park
Webmaster  Alan B. Chamberlin